"startDT [UTC]","vpos","CH4 [ppm]","stdev(CH4) [ppm]","CO2 [ppm]","stdev(CO2) [ppm]","H2O_reported [%]","stdev(H2O_reported)","CavityPressure [torr]","CavityTemp [C]","OutletValve","CH4_dry [ppm]","CO2_dry [ppm]","DasTemp [C]","EtalonTemp [C]","WarmBoxTemp [C]","MPVPosition","T_ECpre [C]","T_EC1 [C]","T_EC2 [C]","p_inlet [hPa]","p_in [hPa]","p_out [hPa]","T_inlet [C]","RH_inlet [%]","dwpt_inlet [C]","T_vent [C]","RH_vent [%]","dwpt_vent [C]","flow_vent [l min-1]","flow_inlet [l min-1]","dwpt_sample [C]","T_room [C]"
2015-01-24 00:00:00,0.0,1.94345,0.00031,407.158,0.033,0.0743,0.0014,139.998,45.000,28610.35600,1.94487,407.522,33.063,45.068,45.000,0.00,0.09,-272.69,-272.75,-9,145,-1,20.1,2.5,-28.4,20.2,4.0,-23.2,5.73,2.39,-18.3,25.6
2015-01-24 00:01:00,0.0,1.94367,0.00041,407.172,0.031,0.0740,0.0015,139.999,45.000,28597.24199,1.94506,407.533,33.062,45.068,45.000,0.00,0.09,-272.68,-272.75,-9,143,-1,20.1,2.5,-28.3,20.2,4.0,-23.2,5.73,2.38,-18.3,25.6
2015-01-24 00:02:00,0.0,1.94353,0.00037,407.202,0.028,0.0736,0.0015,140.002,45.000,28599.92994,1.94498,407.562,33.064,45.068,45.000,0.00,0.09,-272.69,-272.75,-9,143,-1,20.1,2.5,-28.4,20.2,4.0,-23.2,5.73,2.37,-18.3,25.7
2015-01-24 00:03:00,0.0,1.94327,0.00034,407.188,0.028,0.0737,0.0020,140.001,45.000,28602.06213,1.94466,407.549,33.075,45.068,45.000,0.00,0.09,-272.69,-272.75,-9,144,-1,20.1,2.5,-28.3,20.2,4.0,-23.2,5.73,2.35,-18.2,25.7
2015-01-24 00:04:00,0.0,1.94319,0.00037,407.176,0.030,0.0749,0.0016,140.000,45.000,28601.69664,1.94465,407.544,33.118,45.068,45.000,0.00,0.09,-272.68,-272.74,-9,144,-1,20.1,2.5,-28.2,20.2,4.0,-23.1,5.73,2.33,-18.3,25.7
2015-01-24 00:05:00,0.0,1.94321,0.00036,407.199,0.027,0.0739,0.0016,140.001,45.000,28597.55050,1.94464,407.561,33.130,45.067,45.000,0.00,0.09,-272.68,-272.75,-9,144,-1,20.1,2.5,-28.2,20.3,4.0,-23.1,5.73,2.33,-18.3,25.7
2015-01-24 00:06:00,0.0,1.94343,0.00029,407.204,0.032,0.0738,0.0016,140.000,45.000,28602.20746,1.94481,407.565,33.174,45.067,45.000,0.00,0.09,-272.69,-272.76,-9,144,-1,20.2,2.5,-28.2,20.3,4.0,-23.1,5.73,2.31,-18.3,25.7
2015-01-24 00:07:00,0.0,1.94343,0.00050,407.221,0.028,0.0748,0.0020,139.999,45.000,28592.41927,1.94487,407.587,33.184,45.067,44.999,0.00,0.09,-272.68,-272.74,-9,143,-1,20.2,2.5,-28.2,20.3,4.0,-23.1,5.73,2.32,-18.3,25.7
2015-01-24 00:08:00,0.0,1.94382,0.00035,407.214,0.033,0.0754,0.0017,139.999,45.000,28586.46237,1.94524,407.584,33.188,45.067,44.999,0.00,0.09,-272.69,-272.74,-9,142,-1,20.2,2.5,-28.1,20.3,4.0,-23.1,5.73,2.33,-18.3,25.7
2015-01-24 00:09:00,0.0,1.94390,0.00038,407.236,0.035,0.0754,0.0014,139.998,45.000,28591.11512,1.94536,407.605,33.188,45.067,44.999,0.00,0.09,-272.69,-272.75,-9,143,-1,20.2,2.6,-28.1,20.3,4.0,-23.1,5.73,2.34,-18.3,25.7
2015-01-24 00:10:00,0.0,1.94369,0.00032,407.242,0.032,0.0753,0.0012,139.997,45.000,28597.11889,1.94513,407.612,33.187,45.067,45.000,0.00,0.09,-272.69,-272.74,-9,144,-1,20.2,2.6,-28.0,20.3,4.0,-23.2,5.73,2.35,-18.3,25.7
2015-01-24 00:11:00,0.0,1.94396,0.00042,407.238,0.027,0.0762,0.0017,140.000,45.000,28605.84919,1.94543,407.611,33.188,45.067,45.000,0.00,0.09,-272.68,-272.73,-9,144,-1,20.2,2.6,-28.1,20.3,4.0,-23.1,5.73,2.37,-18.3,25.8
2015-01-24 00:12:00,0.0,1.94402,0.00032,407.229,0.034,0.0747,0.0011,139.999,45.000,28616.41928,1.94545,407.596,33.188,45.068,45.000,0.00,0.09,-272.69,-272.75,-9,146,-1,20.1,2.5,-28.3,20.3,4.0,-23.1,5.73,2.39,-18.3,25.8
2015-01-24 00:13:00,0.0,1.94405,0.00047,407.233,0.032,0.0748,0.0017,140.000,45.000,28617.87325,1.94546,407.600,33.188,45.068,45.000,0.00,0.09,-272.69,-272.74,-9,146,-1,20.1,2.5,-28.4,20.3,4.0,-23.1,5.73,2.39,-18.3,25.7
2015-01-24 00:14:00,0.0,1.94407,0.00037,407.254,0.026,0.0736,0.0019,139.998,45.000,28610.59845,1.94548,407.613,33.173,45.068,45.000,0.00,0.09,-272.69,-272.74,-9,145,-1,20.1,2.5,-28.5,20.3,4.0,-23.1,5.73,2.40,-18.3,25.7
2015-01-24 00:15:00,0.0,1.94411,0.00041,407.246,0.039,0.0736,0.0020,139.999,45.000,28609.90221,1.94554,407.608,33.159,45.068,45.000,0.00,0.09,-272.69,-272.75,-9,145,-1,20.1,2.5,-28.4,20.3,4.0,-23.1,5.73,2.40,-18.3,25.7
2015-01-24 00:16:00,0.0,1.94428,0.00033,407.251,0.022,0.0729,0.0015,140.000,45.000,28606.31642,1.94567,407.608,33.126,45.068,45.000,0.00,0.09,-272.69,-272.75,-9,145,-1,20.1,2.5,-28.5,20.3,4.0,-23.1,5.73,2.40,-18.3,25.7
2015-01-24 00:17:00,0.0,1.94405,0.00039,407.246,0.025,0.0725,0.0015,139.995,45.000,28602.52201,1.94545,407.602,33.114,45.068,45.000,0.00,0.09,-272.69,-272.74,-9,144,-1,20.1,2.5,-28.6,20.3,4.0,-23.1,5.73,2.38,-18.3,25.7
2015-01-24 00:18:00,0.0,1.94403,0.00033,407.268,0.037,0.0712,0.0017,140.000,45.000,28593.77709,1.94540,407.616,33.124,45.068,45.001,0.00,0.09,-272.68,-272.75,-9,143,-1,20.1,2.4,-28.7,20.3,4.0,-23.1,5.73,2.37,-18.3,25.7
2015-01-24 00:19:00,0.0,1.94404,0.00039,407.268,0.026,0.0715,0.0017,140.000,45.000,28591.01095,1.94539,407.619,33.141,45.068,45.000,0.00,0.09,-272.68,-272.75,-9,142,-1,20.2,2.4,-28.6,20.3,4.0,-23.1,5.73,2.35,-18.3,25.7
2015-01-24 00:20:00,0.0,1.94400,0.00031,407.245,0.037,0.0723,0.0015,139.999,45.000,28586.87890,1.94536,407.599,33.180,45.068,45.000,0.00,0.09,-272.69,-272.74,-9,142,-1,20.2,2.4,-28.6,20.3,4.0,-23.1,5.73,2.33,-18.3,25.7
2015-01-24 00:21:00,0.0,1.94421,0.00035,407.295,0.032,0.0727,0.0022,139.999,45.000,28586.34727,1.94560,407.650,33.191,45.068,45.000,0.00,0.09,-272.68,-272.75,-9,142,-1,20.2,2.5,-28.5,20.3,4.0,-23.1,5.73,2.32,-18.3,25.8
2015-01-24 00:22:00,0.0,1.94410,0.00029,407.288,0.036,0.0739,0.0015,139.999,45.000,28587.74406,1.94552,407.651,33.221,45.068,45.000,0.00,0.09,-272.69,-272.75,-9,142,-1,20.3,2.5,-28.3,20.4,4.0,-23.1,5.73,2.32,-18.3,25.8
2015-01-24 00:23:00,0.0,1.94447,0.00029,407.289,0.034,0.0739,0.0019,140.003,45.000,28600.51775,1.94588,407.649,33.243,45.067,45.000,0.00,0.09,-272.69,-272.75,-9,143,-1,20.3,2.5,-28.3,20.4,4.0,-23.1,5.73,2.32,-18.3,25.8
2015-01-24 00:24:00,0.0,1.94444,0.00036,407.308,0.026,0.0736,0.0020,140.003,45.000,28607.58922,1.94584,407.668,33.248,45.067,45.000,0.00,0.09,-272.69,-272.74,-9,145,-1,20.2,2.5,-28.3,20.3,4.0,-23.1,5.73,2.33,-18.3,25.8
2015-01-24 00:25:00,0.0,1.94468,0.00043,407.331,0.043,0.0748,0.0013,139.999,45.000,28611.51247,1.94609,407.697,33.250,45.067,45.000,0.00,0.09,-272.68,-272.74,-9,145,-1,20.2,2.5,-28.2,20.3,4.0,-23.1,5.73,2.34,-18.3,25.8
2015-01-24 00:26:00,0.0,1.94534,0.00042,407.426,0.064,0.0758,0.0014,139.999,45.000,28613.52114,1.94677,407.796,33.246,45.067,45.000,0.00,0.09,-272.69,-272.75,-9,145,-1,20.1,2.6,-28.1,20.3,4.0,-23.1,5.73,2.36,-18.3,25.8
2015-01-24 00:27:00,0.0,1.94561,0.00045,407.446,0.035,0.0777,0.0019,139.997,45.000,28613.82403,1.94709,407.827,33.223,45.068,45.000,0.00,0.09,-272.69,-272.75,-9,145,-1,20.1,2.6,-27.9,20.3,4.0,-23.1,5.73,2.37,-18.3,25.8
2015-01-24 00:28:00,0.0,1.94531,0.00047,407.427,0.030,0.0777,0.0014,139.999,45.000,28608.46100,1.94679,407.807,33.192,45.068,45.000,0.00,0.09,-272.68,-272.74,-9,144,-1,20.1,2.6,-27.9,20.3,4.0,-23.1,5.73,2.38,-18.3,25.7
2015-01-24 00:29:00,0.0,1.94580,0.00045,407.496,0.039,0.0776,0.0018,140.000,45.000,28605.75329,1.94729,407.879,33.190,45.068,45.000,0.00,0.09,-272.69,-272.74,-9,144,-1,20.1,2.6,-27.9,20.3,4.0,-23.1,5.73,2.40,-18.3,25.7
2015-01-24 00:30:00,0.0,1.94590,0.00039,407.494,0.037,0.0763,0.0014,140.003,45.000,28602.49488,1.94735,407.865,33.188,45.068,45.000,0.00,0.09,-272.70,-272.75,-9,144,-1,20.1,2.6,-28.0,20.3,4.0,-23.1,5.73,2.40,-18.3,25.7
2015-01-24 00:31:00,0.0,1.94611,0.00044,407.544,0.035,0.0759,0.0020,139.997,45.000,28593.20597,1.94757,407.916,33.188,45.068,45.000,0.00,0.09,-272.68,-272.74,-9,143,-1,20.1,2.6,-28.1,20.3,4.0,-23.1,5.73,2.40,-18.3,25.7
2015-01-24 00:32:00,0.0,1.94623,0.00044,407.558,0.044,0.0748,0.0021,140.000,45.000,28590.78789,1.94764,407.924,33.188,45.068,45.000,0.00,0.09,-272.69,-272.75,-9,143,-1,20.1,2.5,-28.2,20.3,4.0,-23.1,5.73,2.39,-18.3,25.7
2015-01-24 00:33:00,0.0,1.94648,0.00039,407.588,0.032,0.0744,0.0014,139.999,45.000,28584.12302,1.94789,407.954,33.188,45.068,45.000,0.00,0.09,-272.69,-272.75,-9,142,-1,20.2,2.5,-28.2,20.3,4.0,-23.1,5.73,2.39,-18.3,25.7
2015-01-24 00:34:00,0.0,1.94623,0.00053,407.554,0.035,0.0747,0.0013,139.999,45.000,28579.89368,1.94768,407.921,33.189,45.068,45.000,0.00,0.09,-272.69,-272.75,-9,141,-1,20.2,2.5,-28.1,20.3,4.0,-23.2,5.73,2.37,-18.3,25.8
2015-01-24 00:35:00,0.0,1.94660,0.00035,407.585,0.038,0.0754,0.0018,140.002,45.000,28577.21625,1.94803,407.952,33.192,45.068,45.000,0.00,0.09,-272.68,-272.74,-10,141,-1,20.2,2.5,-28.3,20.4,4.0,-23.1,5.73,2.35,-18.3,25.8
2015-01-24 00:36:00,0.0,1.94609,0.00040,407.545,0.042,0.0744,0.0017,139.999,45.000,28583.62400,1.94756,407.912,33.192,45.068,45.000,0.00,0.09,-272.69,-272.75,-10,142,-1,20.2,2.5,-28.2,20.4,4.0,-23.1,5.73,2.34,-18.3,25.8
2015-01-24 00:37:00,0.0,1.94637,0.00028,407.547,0.035,0.0747,0.0022,140.001,45.000,28590.61365,1.94775,407.911,33.219,45.068,45.000,0.00,0.09,-272.69,-272.75,-9,142,-1,20.3,2.5,-28.3,20.4,4.0,-23.1,5.73,2.33,-18.3,25.8
2015-01-24 00:38:00,0.0,1.94664,0.00042,407.604,0.041,0.0755,0.0017,139.997,45.000,28598.27081,1.94809,407.975,33.209,45.068,45.000,0.00,0.09,-272.68,-272.74,-9,144,-1,20.2,2.5,-28.1,20.4,4.0,-23.1,5.73,2.32,-18.3,25.8
2015-01-24 00:39:00,0.0,1.94644,0.00026,407.563,0.027,0.0753,0.0012,140.001,45.000,28607.88968,1.94788,407.933,33.205,45.068,45.000,0.00,0.09,-272.69,-272.75,-9,144,-1,20.2,2.5,-28.2,20.3,4.0,-23.2,5.73,2.33,-18.3,25.8
2015-01-24 00:40:00,0.0,1.94671,0.00031,407.605,0.038,0.0750,0.0015,140.001,45.000,28607.78401,1.94815,407.973,33.202,45.068,45.000,0.00,0.09,-272.69,-272.75,-9,145,-1,20.1,2.5,-28.2,20.3,4.0,-23.2,5.73,2.33,-18.3,25.7
2015-01-24 00:41:00,0.0,1.94675,0.00041,407.622,0.033,0.0744,0.0020,140.001,45.000,28594.89098,1.94816,407.986,33.200,45.068,45.000,0.00,0.09,-272.69,-272.74,-9,143,-1,20.1,2.5,-28.2,20.3,4.0,-23.1,5.73,2.34,-18.3,25.7
2015-01-24 00:42:00,0.0,1.94669,0.00036,407.651,0.029,0.0743,0.0018,140.000,45.000,28592.05413,1.94812,408.015,33.189,45.068,45.000,0.00,0.09,-272.69,-272.74,-9,143,-1,20.1,2.5,-28.4,20.3,4.0,-23.2,5.73,2.35,-18.3,25.7
2015-01-24 00:43:00,0.0,1.94715,0.00038,407.687,0.032,0.0738,0.0022,140.000,45.000,28592.78927,1.94856,408.048,33.188,45.068,45.000,0.00,0.09,-272.69,-272.75,-9,143,-1,20.1,2.5,-28.3,20.3,4.0,-23.2,5.73,2.36,-18.3,25.7
2015-01-24 00:44:00,0.0,1.94717,0.00034,407.694,0.024,0.0742,0.0011,139.999,45.000,28596.23278,1.94858,408.057,33.188,45.068,45.000,0.00,0.09,-272.69,-272.74,-9,144,-1,20.1,2.5,-28.3,20.3,4.0,-23.1,5.73,2.37,-18.3,25.7
2015-01-24 00:45:00,0.0,1.94753,0.00034,407.709,0.030,0.0745,0.0018,139.999,45.000,28594.84858,1.94895,408.074,33.180,45.068,45.000,0.00,0.09,-272.68,-272.74,-9,143,-1,20.1,2.5,-28.4,20.3,4.0,-23.1,5.73,2.39,-18.3,25.7
2015-01-24 00:46:00,0.0,1.94767,0.00041,407.776,0.029,0.0719,0.0015,140.000,45.000,28585.21798,1.94904,408.128,33.142,45.068,45.000,0.00,0.09,-272.69,-272.75,-9,142,-1,20.1,2.5,-28.6,20.3,4.0,-23.2,5.73,2.39,-18.3,25.7
2015-01-24 00:47:00,0.0,1.94772,0.00037,407.781,0.029,0.0723,0.0023,139.996,45.000,28572.98332,1.94909,408.135,33.125,45.068,45.000,0.00,0.09,-272.69,-272.74,-10,140,-1,20.1,2.5,-28.6,20.3,4.0,-23.1,5.73,2.39,-18.3,25.7
2015-01-24 00:48:00,0.0,1.94783,0.00041,407.850,0.060,0.0739,0.0013,140.001,45.000,28572.94002,1.94925,408.210,33.123,45.068,45.000,0.00,0.09,-272.69,-272.74,-10,140,-1,20.1,2.5,-28.4,20.3,4.0,-23.1,5.73,2.41,-18.3,25.8
2015-01-24 00:49:00,0.0,1.94800,0.00032,407.864,0.020,0.0756,0.0017,140.000,45.000,28582.66568,1.94945,408.235,33.125,45.068,45.000,0.00,0.09,-272.69,-272.75,-10,141,-1,20.1,2.6,-28.1,20.3,4.0,-23.2,5.73,2.41,-18.3,25.8
2015-01-24 00:50:00,0.0,1.94828,0.00043,407.925,0.038,0.0763,0.0018,139.998,45.000,28584.22411,1.94972,408.298,33.138,45.068,45.000,0.00,0.09,-272.69,-272.75,-10,142,-1,20.1,2.6,-28.0,20.3,4.0,-23.1,5.73,2.39,-18.3,25.8
2015-01-24 00:51:00,0.0,1.94845,0.00036,407.932,0.025,0.0758,0.0021,140.000,45.000,28583.93433,1.94990,408.304,33.180,45.068,45.000,0.00,0.09,-272.69,-272.74,-10,142,-1,20.1,2.6,-28.1,20.3,4.0,-23.2,5.73,2.40,-18.3,25.8
2015-01-24 00:52:00,0.0,1.94892,0.00036,408.033,0.029,0.0755,0.0019,140.001,45.000,28581.27148,1.95037,408.402,33.185,45.068,45.000,0.00,0.09,-272.68,-272.74,-10,141,-1,20.1,2.6,-28.1,20.3,4.0,-23.2,5.73,2.37,-18.3,25.8
2015-01-24 00:53:00,0.0,1.94940,0.00040,408.091,0.046,0.0763,0.0019,140.000,45.000,28570.55194,1.95085,408.465,33.186,45.067,45.000,0.00,0.09,-272.68,-272.75,-10,140,-1,20.1,2.6,-28.1,20.3,4.0,-23.1,5.73,2.39,-18.3,25.8
2015-01-24 00:54:00,0.0,1.94942,0.00040,408.121,0.053,0.0758,0.0014,139.998,45.000,28567.70589,1.95086,408.492,33.188,45.067,45.000,0.00,0.09,-272.69,-272.75,-10,140,-1,20.2,2.6,-28.1,20.3,4.0,-23.1,5.73,2.36,-18.3,25.8
2015-01-24 00:55:00,0.0,1.94961,0.00050,408.133,0.047,0.0766,0.0012,140.000,45.000,28578.34895,1.95109,408.508,33.188,45.067,45.000,0.00,0.09,-272.68,-272.75,-10,141,-1,20.2,2.6,-28.0,20.3,4.0,-23.2,5.73,2.35,-18.3,25.8
2015-01-24 00:56:00,0.0,1.94978,0.00031,408.192,0.025,0.0770,0.0014,140.000,45.000,28579.97340,1.95126,408.571,33.188,45.067,45.000,0.00,0.09,-272.69,-272.75,-10,141,-1,20.2,2.6,-28.0,20.3,4.0,-23.1,5.73,2.34,-18.3,25.8
2015-01-24 00:57:00,0.0,1.94993,0.00031,408.201,0.033,0.0756,0.0014,139.999,45.000,28576.04845,1.95136,408.573,33.204,45.067,45.000,0.00,0.09,-272.69,-272.75,-10,140,-1,20.1,2.6,-28.1,20.3,4.0,-23.1,5.73,2.34,-18.3,25.8
2015-01-24 00:58:00,0.0,1.95005,0.00035,408.193,0.033,0.0750,0.0012,140.002,45.000,28579.11478,1.95148,408.562,33.230,45.067,45.000,0.00,0.09,-272.68,-272.74,-10,141,-1,20.2,2.5,-28.2,20.3,4.0,-23.2,5.73,2.33,-18.3,25.8
2015-01-24 00:59:00,0.0,1.95056,0.00033,408.252,0.035,0.0754,0.0014,140.001,45.000,28574.32924,1.95202,408.621,33.221,45.067,45.000,0.00,0.09,-272.68,-272.74,-10,140,-1,20.2,2.5,-28.2,20.4,4.0,-23.1,5.73,2.33,-18.3,25.8
2015-01-24 01:00:00,0.0,1.95031,0.00018,408.270,0.030,0.0736,0.0015,140.002,45.000,28573.49707,1.95173,408.632,33.210,45.067,45.000,0.00,0.09,-272.69,-272.75,-10,140,-1,20.2,2.5,-28.3,20.4,4.0,-23.1,5.73,2.34,-18.3,25.8
2015-01-24 01:01:00,0.0,1.95118,0.00075,408.432,0.110,0.0743,0.0019,139.999,45.000,28570.19735,1.95256,408.794,33.211,45.067,45.000,0.00,0.09,-272.69,-272.75,-10,140,-1,20.3,2.5,-28.3,20.4,4.0,-23.1,5.73,2.34,-18.3,25.8
2015-01-24 01:02:00,0.0,1.95169,0.00035,408.414,0.036,0.0745,0.0015,140.002,45.000,28571.69471,1.95313,408.781,33.204,45.067,45.000,0.00,0.09,-272.69,-272.74,-10,140,-1,20.2,2.5,-28.3,20.4,4.0,-23.1,5.73,2.35,-18.3,25.9
2015-01-24 01:03:00,0.0,1.95225,0.00052,408.608,0.077,0.0743,0.0024,140.000,45.000,28572.07015,1.95365,408.969,33.188,45.068,45.000,0.00,0.09,-272.70,-272.75,-10,140,-1,20.3,2.5,-28.4,20.4,4.0,-23.1,5.73,2.35,-18.3,25.9
2015-01-24 01:04:00,0.0,1.95294,0.00036,408.682,0.047,0.0727,0.0020,140.000,45.000,28571.49726,1.95432,409.038,33.185,45.068,45.000,0.00,0.09,-272.69,-272.74,-10,140,-1,20.3,2.5,-28.5,20.4,4.0,-23.1,5.73,2.36,-18.3,25.9
2015-01-24 01:05:00,0.0,1.95318,0.00034,408.786,0.040,0.0722,0.0015,139.998,45.000,28560.45308,1.95456,409.138,33.180,45.068,45.000,0.00,0.09,-272.68,-272.74,-10,138,-1,20.3,2.4,-28.6,20.4,4.0,-23.1,5.73,2.37,-18.3,25.9
2015-01-24 01:06:00,0.0,1.95340,0.00039,408.886,0.046,0.0724,0.0013,139.999,45.000,28560.90927,1.95477,409.241,33.184,45.068,45.000,0.00,0.09,-272.69,-272.74,-10,139,-1,20.3,2.4,-28.6,20.4,4.0,-23.1,5.73,2.37,-18.3,25.9
2015-01-24 01:07:00,0.0,1.95348,0.00042,408.905,0.027,0.0710,0.0016,140.002,45.000,28569.52111,1.95487,409.255,33.188,45.068,45.000,0.00,0.09,-272.69,-272.74,-10,140,-1,20.3,2.4,-28.7,20.4,4.0,-23.1,5.73,2.38,-18.3,25.9
2015-01-24 01:08:00,0.0,1.95398,0.00042,408.882,0.026,0.0707,0.0018,139.999,45.000,28572.13947,1.95534,409.229,33.167,45.068,45.000,0.00,0.09,-272.68,-272.74,-10,141,-1,20.3,2.4,-28.8,20.4,4.0,-23.1,5.73,2.37,-18.3,25.9
2015-01-24 01:09:00,0.0,1.95394,0.00036,408.872,0.032,0.0701,0.0016,139.998,45.000,28570.92368,1.95528,409.217,33.131,45.068,45.000,0.00,0.09,-272.69,-272.74,-10,141,-1,20.2,2.4,-28.8,20.4,4.0,-23.1,5.73,2.38,-18.3,25.9
2015-01-24 01:10:00,0.0,1.95401,0.00031,408.901,0.037,0.0714,0.0021,139.999,45.000,28562.54753,1.95537,409.252,33.119,45.068,45.001,0.00,0.09,-272.69,-272.74,-10,140,-1,20.2,2.4,-28.8,20.4,4.0,-23.1,5.73,2.39,-18.3,25.8
2015-01-24 01:11:00,0.0,1.95385,0.00033,408.865,0.032,0.0711,0.0016,139.999,45.000,28562.83401,1.95525,409.215,33.109,45.068,45.000,0.00,0.09,-272.69,-272.75,-10,139,-1,20.2,2.4,-28.7,20.4,4.0,-23.1,5.73,2.39,-18.3,25.9
2015-01-24 01:12:00,0.0,1.95360,0.00034,408.869,0.034,0.0702,0.0017,140.001,45.000,28569.24017,1.95492,409.214,33.100,45.068,45.000,0.00,0.09,-272.69,-272.74,-10,140,-1,20.2,2.4,-28.8,20.4,4.0,-23.1,5.73,2.39,-18.3,25.8
2015-01-24 01:13:00,0.0,1.95370,0.00036,408.871,0.029,0.0704,0.0017,139.998,45.000,28564.26983,1.95508,409.217,33.080,45.068,45.000,0.00,0.09,-272.69,-272.75,-10,139,-1,20.3,2.4,-28.8,20.4,4.0,-23.1,5.73,2.39,-18.4,25.9
2015-01-24 01:14:00,0.0,1.95405,0.00035,408.879,0.027,0.0694,0.0017,140.003,45.000,28561.44992,1.95536,409.220,33.087,45.068,45.000,0.00,0.09,-272.69,-272.75,-10,139,-1,20.3,2.3,-28.9,20.4,4.0,-23.1,5.73,2.39,-18.3,25.9
2015-01-24 01:15:00,0.0,1.95405,0.00029,408.896,0.027,0.0704,0.0020,140.002,45.000,28564.74645,1.95541,409.242,33.123,45.068,45.000,0.00,0.09,-272.68,-272.74,-10,139,-1,20.3,2.3,-28.9,20.5,4.0,-23.0,5.73,2.39,-18.3,25.9
2015-01-24 01:16:00,0.0,1.95430,0.00038,408.932,0.037,0.0691,0.0017,140.000,45.000,28563.13034,1.95562,409.272,33.149,45.068,45.000,0.00,0.09,-272.69,-272.75,-10,139,-2,20.4,2.3,-28.9,20.5,4.0,-23.1,5.73,2.38,-18.3,25.9
2015-01-24 01:17:00,0.0,1.95471,0.00030,408.956,0.031,0.0701,0.0011,139.998,45.000,28549.05059,1.95605,409.299,33.186,45.068,45.000,0.00,0.09,-272.70,-272.75,-10,138,-1,20.4,2.4,-28.8,20.5,4.0,-23.0,5.73,2.37,-18.3,26.0
2015-01-24 01:18:00,0.0,1.95438,0.00041,408.914,0.029,0.0709,0.0015,139.999,45.000,28548.59425,1.95576,409.264,33.192,45.068,45.000,0.00,0.09,-272.68,-272.74,-10,138,-2,20.4,2.4,-28.7,20.5,4.0,-23.0,5.73,2.36,-18.3,26.0
2015-01-24 01:19:00,0.0,1.95451,0.00047,408.955,0.033,0.0710,0.0017,140.001,45.000,28554.03434,1.95586,409.302,33.223,45.068,45.000,0.00,0.09,-272.69,-272.74,-10,138,-2,20.4,2.4,-28.7,20.6,4.0,-23.0,5.73,2.37,-18.3,26.0
2015-01-24 01:20:00,0.0,1.95477,0.00035,408.960,0.033,0.0722,0.0012,140.001,45.000,28556.60911,1.95615,409.315,33.251,45.067,45.000,0.00,0.09,-272.69,-272.75,-10,138,-2,20.4,2.4,-28.6,20.6,4.0,-23.0,5.73,2.36,-18.3,25.9
2015-01-24 01:21:00,0.0,1.95505,0.00047,409.035,0.033,0.0724,0.0018,140.002,45.000,28564.61447,1.95644,409.391,33.285,45.067,45.000,0.00,0.09,-272.69,-272.74,-10,139,-2,20.4,2.4,-28.5,20.5,4.0,-23.0,5.73,2.36,-18.3,26.0
2015-01-24 01:22:00,0.0,1.95494,0.00029,409.037,0.023,0.0743,0.0017,139.998,45.000,28561.77326,1.95636,409.403,33.304,45.067,44.999,0.00,0.09,-272.68,-272.74,-10,139,-2,20.4,2.5,-28.3,20.5,4.0,-23.0,5.73,2.37,-18.3,26.0
2015-01-24 01:23:00,0.0,1.95506,0.00034,409.027,0.036,0.0739,0.0013,140.000,45.000,28556.12507,1.95649,409.390,33.312,45.067,44.999,0.00,0.09,-272.69,-272.75,-10,138,-2,20.4,2.5,-28.4,20.5,4.0,-23.0,5.73,2.37,-18.3,26.0
2015-01-24 01:24:00,0.0,1.95501,0.00039,409.016,0.035,0.0738,0.0017,140.000,45.000,28551.46364,1.95643,409.380,33.317,45.067,44.999,0.00,0.09,-272.69,-272.75,-10,138,-2,20.4,2.5,-28.4,20.6,4.0,-23.0,5.73,2.36,-18.3,26.0
2015-01-24 01:25:00,0.0,1.95499,0.00037,409.009,0.035,0.0737,0.0017,140.002,45.000,28555.25061,1.95643,409.371,33.330,45.067,44.999,0.00,0.09,-272.68,-272.75,-10,138,-2,20.4,2.5,-28.4,20.6,4.0,-23.0,5.73,2.37,-18.3,26.0
2015-01-24 01:26:00,0.0,1.95490,0.00028,409.024,0.029,0.0730,0.0015,139.998,45.000,28556.28075,1.95629,409.384,33.318,45.067,45.000,0.00,0.09,-272.68,-272.75,-10,138,-2,20.4,2.5,-28.4,20.6,4.0,-23.0,5.73,2.37,-18.3,26.0
2015-01-24 01:27:00,0.0,1.95522,0.00040,409.064,0.032,0.0741,0.0012,140.002,45.000,28554.17655,1.95665,409.427,33.320,45.067,45.000,0.00,0.09,-272.69,-272.75,-10,137,-2,20.4,2.5,-28.3,20.6,4.0,-23.0,5.73,2.37,-18.3,26.0
2015-01-24 01:28:00,0.0,1.95563,0.00044,409.125,0.044,0.0744,0.0020,139.998,45.000,28551.28323,1.95703,409.490,33.321,45.067,45.000,0.00,0.09,-272.69,-272.74,-10,137,-2,20.4,2.5,-28.3,20.6,4.0,-23.0,5.73,2.37,-18.3,26.0
2015-01-24 01:29:00,0.0,1.95589,0.00039,409.118,0.032,0.0741,0.0014,139.999,45.000,28553.46356,1.95733,409.483,33.365,45.068,45.000,0.00,0.09,-272.68,-272.75,-10,137,-2,20.5,2.5,-28.2,20.6,4.0,-23.0,5.73,2.36,-18.3,26.1
2015-01-24 01:30:00,0.0,1.95553,0.00029,409.129,0.030,0.0743,0.0017,139.998,45.000,28550.89530,1.95696,409.494,33.375,45.068,45.000,0.00,0.09,-272.69,-272.75,-10,137,-2,20.5,2.5,-28.3,20.6,4.0,-22.9,5.73,2.36,-18.3,26.1
2015-01-24 01:31:00,0.0,1.95558,0.00040,409.129,0.028,0.0734,0.0013,140.001,45.000,28566.04140,1.95701,409.491,33.380,45.068,45.000,0.00,0.09,-272.69,-272.75,-10,139,-2,20.5,2.5,-28.3,20.7,4.0,-22.9,5.73,2.35,-18.3,26.1
2015-01-24 01:32:00,0.0,1.95557,0.00030,409.108,0.033,0.0731,0.0020,140.001,45.000,28553.15066,1.95696,409.469,33.422,45.068,45.000,0.00,0.09,-272.69,-272.74,-10,137,-2,20.6,2.5,-28.3,20.7,4.0,-22.9,5.73,2.36,-18.3,26.1
2015-01-24 01:33:00,0.0,1.95595,0.00038,409.128,0.035,0.0751,0.0021,140.001,45.000,28549.17348,1.95736,409.496,33.439,45.068,45.000,0.00,0.09,-272.69,-272.75,-10,137,-2,20.6,2.5,-28.2,20.7,4.0,-22.9,5.73,2.36,-18.3,26.1
2015-01-24 01:34:00,0.0,1.95605,0.00030,409.158,0.034,0.0734,0.0017,140.001,45.000,28550.13841,1.95749,409.518,33.437,45.068,45.000,0.00,0.09,-272.69,-272.74,-10,137,-2,20.6,2.5,-28.3,20.7,4.0,-22.9,5.73,2.37,-18.3,26.1
2015-01-24 01:35:00,0.0,1.95603,0.00040,409.177,0.036,0.0730,0.0015,140.003,45.001,28560.38019,1.95745,409.538,33.436,45.068,45.000,0.00,0.09,-272.68,-272.74,-10,138,-2,20.5,2.4,-28.4,20.7,4.0,-22.9,5.73,2.37,-18.3,26.2
2015-01-24 01:36:00,0.0,1.95585,0.00039,409.181,0.042,0.0731,0.0018,140.001,45.000,28568.43381,1.95724,409.543,33.420,45.068,45.000,0.00,0.09,-272.68,-272.74,-10,139,-2,20.5,2.4,-28.5,20.7,4.0,-22.9,5.73,2.37,-18.3,26.1
2015-01-24 01:37:00,0.0,1.95609,0.00045,409.162,0.028,0.0727,0.0015,139.999,45.000,28573.90865,1.95745,409.518,33.406,45.068,45.000,0.00,0.09,-272.69,-272.75,-10,139,-2,20.4,2.4,-28.4,20.6,4.0,-23.0,5.73,2.37,-18.3,26.2
2015-01-24 01:38:00,0.0,1.95607,0.00033,409.193,0.025,0.0727,0.0017,139.999,45.000,28578.18245,1.95750,409.551,33.380,45.068,45.000,0.00,0.09,-272.68,-272.75,-10,140,-2,20.4,2.5,-28.4,20.6,4.0,-23.0,5.73,2.37,-18.3,26.1
2015-01-24 01:39:00,0.0,1.95609,0.00038,409.216,0.023,0.0736,0.0014,139.997,45.000,28578.03176,1.95751,409.578,33.368,45.068,45.000,0.00,0.09,-272.69,-272.74,-10,140,-2,20.3,2.5,-28.4,20.5,4.0,-23.0,5.73,2.36,-18.3,26.0
2015-01-24 01:40:00,0.0,1.95613,0.00034,409.220,0.029,0.0733,0.0021,139.998,45.000,28568.99280,1.95753,409.581,33.352,45.068,45.000,0.00,0.09,-272.69,-272.75,-10,139,-2,20.3,2.5,-28.4,20.5,4.0,-23.0,5.73,2.37,-18.4,26.0
2015-01-24 01:41:00,0.0,1.95637,0.00041,409.224,0.042,0.0725,0.0017,140.000,45.000,28568.83098,1.95777,409.581,33.334,45.068,45.000,0.00,0.09,-272.69,-272.75,-10,139,-2,20.3,2.5,-28.4,20.5,4.0,-23.0,5.73,2.36,-18.4,26.1
2015-01-24 01:42:00,0.0,1.95657,0.00049,409.252,0.056,0.0727,0.0015,139.997,45.000,28575.13854,1.95793,409.608,33.321,45.068,45.000,0.00,0.09,-272.68,-272.74,-10,139,-2,20.3,2.5,-28.4,20.5,4.0,-23.0,5.73,2.36,-18.4,26.1
2015-01-24 01:43:00,0.0,1.95739,0.00042,409.318,0.039,0.0737,0.0016,140.000,45.000,28578.76874,1.95880,409.682,33.310,45.068,45.000,0.00,0.09,-272.69,-272.74,-10,140,-2,20.3,2.5,-28.3,20.5,4.0,-23.0,5.73,2.36,-18.3,26.0
2015-01-24 01:44:00,0.0,1.95696,0.00045,409.262,0.045,0.0743,0.0015,139.999,45.000,28571.77553,1.95842,409.628,33.294,45.068,45.000,0.00,0.09,-272.69,-272.75,-10,139,-2,20.3,2.5,-28.3,20.5,4.0,-23.0,5.73,2.36,-18.4,26.0
2015-01-24 01:45:00,0.0,1.95742,0.00039,409.303,0.043,0.0729,0.0019,140.002,45.000,28561.87581,1.95883,409.659,33.257,45.068,45.000,0.00,0.09,-272.69,-272.74,-10,137,-2,20.3,2.4,-28.5,20.5,4.0,-23.1,5.73,2.36,-18.4,26.0